Location: Hickory_CSC
(35.7330°N, 81.3330°W)
Time: 10:05:23
(UTC-05:00)

ISS - All Passes

Search period start: 23 November 2017 00:00
Search period end: 03 December 2017 00:00
Orbit: 402 x 407 km, 51.6° (Epoch: 24 November)

Date Brightness Start Highest point End Pass type
(mag) Time Alt. Az. Time Alt. Az. Time Alt. Az.
23 Nov - 02:54:51 10° NNW 02:57:52 34° NE 03:00:52 10° ESE night (unlit)
23 Nov - 04:31:47 10° W 04:34:10 19° SW 04:36:31 10° S night (unlit)
23 Nov - 19:32:23 10° SSW 19:35:33 50° SE 19:38:44 10° ENE visible
23 Nov - 21:09:55 10° WNW 21:12:13 18° NNW 21:14:31 10° NNE night (unlit)
24 Nov - 02:02:56 10° NNW 02:05:25 20° NNE 02:07:55 10° E night (unlit)
24 Nov - 03:38:56 10° WNW 03:42:00 39° SW 03:45:03 10° SSE night (unlit)
24 Nov - 18:40:42 10° S 18:43:22 23° SE 18:46:02 10° ENE visible
24 Nov - 20:16:50 10° W 20:19:44 29° NW 20:22:39 10° NNE visible
25 Nov - 01:11:17 10° N 01:12:53 13° NNE 01:14:28 10° NE night (unlit)
25 Nov - 02:46:29 10° NW 02:49:46 90° S 02:53:00 10° SE night (unlit)
25 Nov - 17:50:11 10° SE 17:51:15 11° SE 17:52:20 10° ESE visible
25 Nov - 19:24:07 10° WSW 19:27:20 55° NW 19:30:34 10° NE visible
25 Nov - 21:03:58 10° NNW 21:04:25 10° NNW 21:04:50 10° NNW night (unlit)
26 Nov - 01:54:17 10° NW 01:57:25 42° NE 02:00:32 10° ESE night (unlit)
26 Nov - 03:31:42 10° W 03:33:36 15° SW 03:35:29 10° SSW night (unlit)
26 Nov - 18:31:47 10° SW 18:35:01 67° SE 18:38:17 10° NE visible
26 Nov - 20:09:46 10° WNW 20:11:47 15° NNW 20:13:47 10° N visible
27 Nov - 01:02:15 10° NNW 01:04:58 23° NNE 01:07:40 10° E night (unlit)
27 Nov - 02:38:32 10° WNW 02:41:26 30° SW 02:44:20 10° SSE night (unlit)
27 Nov - 17:39:52 10° SSW 17:42:46 30° SE 17:45:41 10° ENE visible
27 Nov - 19:16:31 10° W 19:19:14 24° NNW 19:21:59 10° NNE visible
28 Nov - 00:10:27 10° N 00:12:25 15° NNE 00:14:23 10° ENE night (unlit)
28 Nov - 01:45:57 10° NW 01:49:11 68° SW 01:52:25 10° SE night (unlit)
28 Nov - 16:48:42 10° SSE 16:50:35 15° SE 16:52:28 10° E daylight
28 Nov - 18:23:37 10° WSW 18:26:46 43° NW 18:29:55 10° NE visible
28 Nov - 23:19:35 10° NNE 23:19:46 10° NNE 23:19:57 10° NNE night (unlit)
29 Nov - 00:53:37 10° NW 00:56:51 54° NE 01:00:02 10° ESE night (unlit)
29 Nov - 02:31:49 10° WSW 02:32:55 11° SW 02:34:02 10° SSW night (unlit)
29 Nov - 17:31:06 10° SW 17:34:23 88° SE 17:37:40 10° NE daylight
29 Nov - 19:09:35 10° NW 19:11:15 13° NNW 19:12:54 10° N visible
30 Nov - 00:01:30 10° NNW 00:04:23 28° NE 00:07:16 10° E night (unlit)
30 Nov - 01:38:05 10° WNW 01:40:45 23° SW 01:43:25 10° S night (unlit)
30 Nov - 16:39:00 10° SSW 16:42:04 39° SE 16:45:09 10° ENE daylight
30 Nov - 18:16:06 10° W 18:18:38 20° NNW 18:21:10 10° NNE visible
30 Nov - 23:09:33 10° NNW 23:11:49 17° NNE 23:14:05 10° ENE night (unlit)
01 Dec - 00:45:19 10° WNW 00:48:30 51° SW 00:51:39 10° SSE night (unlit)
01 Dec - 15:47:27 10° S 15:49:49 19° SE 15:52:11 10° E daylight
01 Dec - 17:23:03 10° WSW 17:26:06 34° NW 17:29:08 10° NNE daylight
01 Dec - 22:18:00 10° N 22:19:10 11° NNE 22:20:20 10° NE night (unlit)
01 Dec - 23:52:53 10° NW 23:56:08 71° NE 23:59:22 10° SE night (unlit)
02 Dec - 16:30:23 10° SW 16:33:38 71° NW 16:36:55 10° NE daylight
02 Dec - 18:09:24 10° NW 18:10:36 12° NNW 18:11:49 10° N visible
02 Dec - 23:00:39 10° NNW 23:03:40 34° NE 23:06:41 10° ESE night (unlit)
